PP5CI-13 Weather Reports


Display with metric or nautical units.
time (UTC)temp
F
wind
direction
speed
MPH
gust
MPH
rain 1hr
in
rain 24hr
in
rain mn
in
humidity
%
barometer
mb
20260504172520 75 260 3.0 4.0 0.00 0.00 0.00 82 1019.2
20260504171519 74 0.0 0.0 0.00 0.00 0.00 83 1019.2
20260504170519 74 253 3.0 5.0 0.00 0.00 0.00 82 1019.2
20260504150520 75 132 2.0 3.0 0.00 0.00 0.00 77 1020.2
20260504140520 72 130 1.0 2.0 0.00 0.00 0.00 81 1021.2
20260504130520 69 268 3.0 4.0 0.00 0.00 0.00 87 1021.2
20260504110523 64 251 1.0 4.0 0.00 0.00 0.00 97 1021.2
20260504100522 64 267 2.0 3.0 0.00 0.00 0.00 95
20260504081520 64 0.0 0.0 0.00 0.00 0.00 92 1020.2
20260504080522 64 0.0 0.0 0.00 0.00 0.00 93 1020.2
20260504050522 65 248 0.0 2.0 0.00 0.00 0.00 90 1021.2
20260504045520 65 0.0 0.0 0.00 0.00 0.00 90 1021.2
20260504044520 65 0.0 0.0 0.00 0.00 0.00 91 1021.2
20260504043522 65 250 2.0 2.0 0.00 0.00 0.00 91 1021.2
20260504042520 65 0.0 0.0 0.00 0.00 0.00 90 1021.2
20260504041520 65 0.0 0.0 0.00 0.00 0.00 90 1021.2
20260504040522 65 0.0 0.0 0.00 0.00 0.00 90 1021.2
20260504035520 65 0.0 0.0 0.00 0.00 0.00 90 1021.2
20260504034520 65 0.0 0.0 0.00 0.00 0.00 89 1021.2
20260504033522 65 0.0 0.0 0.00 0.00 0.00 89 1021.7
20260504032520 65 0.0 0.0 0.00 0.00 0.00 89 1022.2
20260504031520 65 0.0 0.0 0.00 0.00 0.00 89 1022.2
20260504030522 65 0.0 0.0 0.00 0.00 0.00 89 1022.2
20260504025520 65 139 0.0 2.0 0.00 0.00 0.00 89 1022.2
20260504024520 65 0.0 0.0 0.00 0.00 0.00 89 1022.2
20260504023522 65 129 1.0 2.0 0.00 0.00 0.00 89 1022.5
20260504022520 65 113 1.0 2.0 0.00 0.00 0.00 89 1023.2
20260504021520 65 138 1.0 2.0 0.00 0.00 0.00 89 1023.2
20260504020522 66 180 0.0 1.0 0.00 0.00 0.00 89 1023.2
20260504015520 66 0.0 0.0 0.00 0.00 0.00 89 1023.2
20260504014520 66 122 0.0 2.0 0.00 0.00 0.00 89 1023.2
20260504013522 66 0.0 0.0 0.00 0.00 0.00 89 1023.2
20260504012520 66 0.0 0.0 0.00 0.00 0.00 89 1023.2
20260504011520 66 0.0 0.0 0.00 0.00 0.00 89 1023.2
20260504010523 66 0.0 0.0 0.00 0.00 0.00 89 1023.2
20260504005520 66 113 0.0 2.0 0.00 0.00 0.00 89 1023.2
20260504004520 66 0.0 0.0 0.00 0.00 0.00 88 1023.2
20260504003522 66 135 0.0 2.0 0.00 0.00 0.00 87 1023.2
20260504002520 66 158 0.0 2.0 0.00 0.00 0.00 87 1023.2
20260504001520 66 0.0 0.0 0.00 0.00 0.00 86 1023.2
20260504000522 66 122 2.0 2.0 0.00 0.00 0.00 86 1023.2
20260503235520 67 132 1.0 2.0 0.00 0.00 0.00 85 1023.2
20260503234520 66 0.0 0.0 0.00 0.00 0.00 84 1023.2
20260503233522 66 0.0 0.0 0.00 0.00 0.00 84 1022.5
20260503232520 66 135 0.0 2.0 0.00 0.00 0.00 83 1022.2
20260503231520 66 0.0 0.0 0.00 0.00 0.00 82 1022.2
20260503230522 67 135 0.0 2.0 0.00 0.00 0.00 82 1023.2
20260503225520 67 0.0 0.0 0.00 0.00 0.00 82 1022.2
20260503224520 67 0.0 0.0 0.00 0.00 0.00 82 1023.2
20260503223522 67 141 1.0 2.0 0.00 0.00 0.00 81 1022.7
20260503222520 67 125 1.0 2.0 0.00 0.00 0.00 80 1022.2
20260503221520 68 135 0.0 2.0 0.00 0.00 0.00 79 1022.2
20260503220522 68 141 1.0 2.0 0.00 0.00 0.00 78 1022.2
20260503215520 68 0.0 0.0 0.00 0.00 0.00 78 1022.2
20260503214520 0 0.0 0.0 0.00 0.00 0.00
20260503213520 0 0.0 0.0 0.00 0.00 0.00
20260503212520 68 113 1.0 2.0 0.00 0.00 0.00 77 1022.2
20260503211520 68 0.0 0.0 0.00 0.00 0.00 77 1022.2
20260503210521 0 0.0 0.0 0.00 0.00 0.00
20260503205520 69 0.0 0.0 0.00 0.00 0.00 75 1022.2
20260503204520 69 0.0 0.0 0.00 0.00 0.00 74 1022.2
20260503203522 69 158 0.0 1.0 0.00 0.00 0.00 73 1022.2
20260503202520 69 113 0.0 1.0 0.00 0.00 0.00 73 1022.2
20260503201520 69 162 0.0 2.0 0.00 0.00 0.00 72 1022.2
20260503200522 69 265 2.0 5.0 0.00 0.00 0.00 72 1022.2
20260503195520 70 270 0.0 2.0 0.00 0.00 0.00 71 1022.2
20260503194520 70 141 1.0 2.0 0.00 0.00 0.00 71 1022.2
20260503193522 69 262 2.0 4.0 0.00 0.00 0.00 71 1022.2
20260503192520 69 260 3.0 5.0 0.00 0.00 0.00 70 1022.2
20260503191520 70 256 2.0 4.0 0.00 0.00 0.00 70 1022.2
20260503190522 70 247 2.0 4.0 0.00 0.00 0.00 70 1022.2
20260503185520 70 270 4.0 7.0 0.00 0.00 0.00 67 1022.2
20260503184520 70 203 1.0 3.0 0.00 0.00 0.00 69 1022.2
20260503183521 71 270 4.0 6.0 0.00 0.00 0.00 67 1023.2
20260503182520 71 263 4.0 5.0 0.00 0.00 0.00 67 1023.2
20260503181520 72 264 2.0 4.0 0.00 0.00 0.00 67 1023.2
20260503180521 71 255 2.0 5.0 0.00 0.00 0.00 67 1023.2
20260503175520 71 167 2.0 4.0 0.00 0.00 0.00 67 1023.2
20260503174520 71 248 3.0 5.0 0.00 0.00 0.00 67 1023.2
20260503173521 71 270 6.0 11.0 0.00 0.00 0.00 65 1023.2